• In Belgien
  • Länderverzeichnis
  • Für 7 Tage
  • Wassertemperatur
  • Satellitenkarten
  • Wetterkarte
  • Widgets
  • user-avatar
    Anmelden

    Stündliche Wetter Vranic

    Heute, 27 Mai, Sonntag

    Zeit Temperatur Niederschläge Wind Luftdruck Luftfeuchtigkeit
    00:00 +20°C° 0,2 mm 1 m/S 750 mmHg 85%
    01:00 +17°C° 0,2 mm 0 m/S 750 mmHg 87%
    02:00 +17°C° 0 mm 0 m/S 750 mmHg 88%
    03:00 +16°C° 0 mm 0 m/S 750 mmHg 89%
    04:00 +16°C° 0 mm 0 m/S 750 mmHg 90%
    05:00 +18°C° 0 mm 0 m/S 750 mmHg 86%
    06:00 +19°C° 0 mm 0 m/S 750 mmHg 81%
    07:00 +21°C° 0 mm 0 m/S 750 mmHg 77%
    08:00 +24°C° 0 mm 1 m/S 750 mmHg 72%
    09:00 +25°C° 0 mm 1 m/S 750 mmHg 67%
    10:00 +27°C° 0 mm 1 m/S 750 mmHg 62%
    11:00 +28°C° 0 mm 1 m/S 750 mmHg 58%
    12:00 +28°C° 0 mm 1 m/S 749 mmHg 55%
    13:00 +29°C° 0 mm 1 m/S 749 mmHg 51%
    14:00 +29°C° 0 mm 1 m/S 749 mmHg 51%
    15:00 +29°C° 0 mm 1 m/S 749 mmHg 52%
    16:00 +29°C° 0 mm 2 m/S 748 mmHg 52%
    17:00 +28°C° 0,1 mm 2 m/S 748 mmHg 58%
    18:00 +26°C° 0,1 mm 2 m/S 748 mmHg 65%
    19:00 +24°C° 0,1 mm 2 m/S 749 mmHg 71%
    20:00 +23°C° 0,1 mm 2 m/S 749 mmHg 74%
    21:00 +21°C° 0,1 mm 2 m/S 749 mmHg 78%
    22:00 +20°C° 0,1 mm 2 m/S 749 mmHg 81%
    23:00 +20°C° 0 mm 2 m/S 749 mmHg 83%

    Morgen, 28 Mai, Montag

    Zeit Temperatur Niederschläge Wind Luftdruck Luftfeuchtigkeit
    00:00 +19°C° 0 mm 2 m/S 749 mmHg 85%
    01:00 +19°C° 0 mm 2 m/S 749 mmHg 87%
    02:00 +18°C° 0 mm 2 m/S 749 mmHg 88%
    03:00 +18°C° 0 mm 2 m/S 749 mmHg 89%
    04:00 +17°C° 0 mm 2 m/S 749 mmHg 90%
    05:00 +19°C° 0 mm 2 m/S 749 mmHg 86%
    06:00 +20°C° 0 mm 2 m/S 750 mmHg 81%
    07:00 +23°C° 0 mm 2 m/S 750 mmHg 77%
    08:00 +24°C° 0 mm 2 m/S 750 mmHg 71%
    09:00 +26°C° 0 mm 3 m/S 750 mmHg 65%
    10:00 +27°C° 0 mm 3 m/S 750 mmHg 59%
    11:00 +28°C° 0 mm 3 m/S 750 mmHg 57%
    12:00 +29°C° 0 mm 3 m/S 749 mmHg 55%
    13:00 +29°C° 0 mm 3 m/S 749 mmHg 53%
    14:00 +29°C° 0 mm 3 m/S 749 mmHg 54%
    15:00 +29°C° 0 mm 3 m/S 748 mmHg 56%
    16:00 +29°C° 0 mm 3 m/S 748 mmHg 57%
    17:00 +27°C° 0 mm 3 m/S 748 mmHg 64%
    18:00 +25°C° 0 mm 3 m/S 748 mmHg 70%
    19:00 +24°C° 0 mm 3 m/S 749 mmHg 77%
    20:00 +22°C° 0 mm 3 m/S 749 mmHg 78%
    21:00 +21°C° 0 mm 3 m/S 749 mmHg 80%
    22:00 +20°C° 0 mm 3 m/S 749 mmHg 81%
    23:00 +19°C° 0 mm 3 m/S 749 mmHg 81%

    übermorgen, 29 Mai, Dienstag

    Zeit Temperatur Niederschläge Wind Luftdruck Luftfeuchtigkeit
    00:00 +18°C° 0 mm 2 m/S 749 mmHg 81%
    01:00 +18°C° 0 mm 2 m/S 749 mmHg 81%
    02:00 +17°C° 0 mm 2 m/S 749 mmHg 80%
    03:00 +17°C° 0 mm 3 m/S 749 mmHg 80%
    04:00 +17°C° 0 mm 3 m/S 749 mmHg 79%
    05:00 +18°C° 0 mm 3 m/S 749 mmHg 76%
    06:00 +20°C° 0 mm 4 m/S 749 mmHg 73%
    07:00 +21°C° 0 mm 5 m/S 749 mmHg 70%
    08:00 +22°C° 0 mm 5 m/S 749 mmHg 65%
    09:00 +25°C° 0 mm 5 m/S 749 mmHg 60%
    10:00 +26°C° 0 mm 5 m/S 748 mmHg 56%
    11:00 +27°C° 0 mm 6 m/S 748 mmHg 54%
    12:00 +28°C° 0 mm 6 m/S 748 mmHg 52%
    13:00 +28°C° 0 mm 6 m/S 747 mmHg 51%
    14:00 +28°C° 0 mm 6 m/S 747 mmHg 52%
    15:00 +28°C° 0 mm 6 m/S 747 mmHg 54%
    16:00 +27°C° 0 mm 5 m/S 746 mmHg 56%
    17:00 +25°C° 0 mm 5 m/S 746 mmHg 61%
    18:00 +23°C° 0 mm 4 m/S 746 mmHg 66%
    19:00 +21°C° 0 mm 4 m/S 746 mmHg 71%
    20:00 +20°C° 0 mm 4 m/S 746 mmHg 72%
    21:00 +19°C° 0 mm 3 m/S 746 mmHg 72%
    22:00 +18°C° 0 mm 3 m/S 746 mmHg 73%
    23:00 +18°C° 0 mm 3 m/S 746 mmHg 73%

    30 Mai, Mittwoch

    Zeit Temperatur Niederschläge Wind Luftdruck Luftfeuchtigkeit
    00:00 +17°C° 0 mm 3 m/S 746 mmHg 74%
    01:00 +17°C° 0 mm 3 m/S 746 mmHg 74%
    02:00 +17°C° 0 mm 3 m/S 746 mmHg 75%
    03:00 +17°C° 0 mm 3 m/S 745 mmHg 76%
    04:00 +16°C° 0 mm 3 m/S 745 mmHg 77%
    05:00 +18°C° 0 mm 4 m/S 745 mmHg 75%
    06:00 +19°C° 0 mm 4 m/S 745 mmHg 73%
    07:00 +20°C° 0 mm 5 m/S 746 mmHg 72%
    08:00 +22°C° 0 mm 5 m/S 746 mmHg 69%
    09:00 +23°C° 0 mm 5 m/S 746 mmHg 66%
    10:00 +25°C° 0 mm 5 m/S 745 mmHg 63%
    11:00 +26°C° 0 mm 5 m/S 745 mmHg 60%
    12:00 +27°C° 0 mm 4 m/S 745 mmHg 57%
    13:00 +28°C° 0 mm 4 m/S 745 mmHg 54%
    14:00 +28°C° 0 mm 4 m/S 745 mmHg 55%
    15:00 +28°C° 0 mm 4 m/S 744 mmHg 57%
    16:00 +28°C° 0 mm 4 m/S 744 mmHg 58%
    17:00 +26°C° 0 mm 4 m/S 744 mmHg 63%
    18:00 +25°C° 0 mm 3 m/S 744 mmHg 69%
    19:00 +22°C° 0 mm 3 m/S 744 mmHg 75%
    20:00 +21°C° 0 mm 2 m/S 744 mmHg 75%
    21:00 +20°C° 0 mm 2 m/S 744 mmHg 76%
    22:00 +19°C° 0 mm 2 m/S 744 mmHg 77%
    23:00 +19°C° 0 mm 2 m/S 744 mmHg 78%

    31 Mai, Donnerstag

    Zeit Temperatur Niederschläge Wind Luftdruck Luftfeuchtigkeit
    00:00 +19°C° 0 mm 2 m/S 744 mmHg 79%
    01:00 +18°C° 0 mm 2 m/S 744 mmHg 79%
    02:00 +19°C° 0,4 mm 1 m/S 744 mmHg 81%
    03:00 +19°C° 0,4 mm 1 m/S 744 mmHg 82%
    04:00 +19°C° 0,4 mm 1 m/S 744 mmHg 83%
    05:00 +20°C° 0,5 mm 1 m/S 744 mmHg 83%
    06:00 +21°C° 0,5 mm 1 m/S 744 mmHg 83%
    07:00 +22°C° 0,5 mm 1 m/S 744 mmHg 83%
    08:00 +23°C° 0,1 mm 1 m/S 744 mmHg 77%
    09:00 +25°C° 0,1 mm 1 m/S 744 mmHg 72%
    10:00 +26°C° 0,1 mm 1 m/S 744 mmHg 67%
    11:00 +27°C° 0,6 mm 1 m/S 744 mmHg 64%
    12:00 +28°C° 0,6 mm 1 m/S 744 mmHg 61%
    13:00 +28°C° 0,6 mm 1 m/S 743 mmHg 58%
    14:00 +28°C° 0,1 mm 1 m/S 743 mmHg 57%
    15:00 +28°C° 0,1 mm 1 m/S 743 mmHg 57%
    16:00 +29°C° 0,1 mm 1 m/S 743 mmHg 57%
    17:00 +27°C° 0,8 mm 1 m/S 743 mmHg 64%
    18:00 +25°C° 0,8 mm 1 m/S 743 mmHg 71%
    19:00 +24°C° 0,8 mm 1 m/S 743 mmHg 78%
    20:00 +23°C° 1,4 mm 1 m/S 743 mmHg 81%
    21:00 +22°C° 1,4 mm 1 m/S 743 mmHg 83%
    22:00 +22°C° 1,4 mm 1 m/S 744 mmHg 86%
    23:00 +21°C° 0,4 mm 1 m/S 744 mmHg 87%

    1 Juni, Freitag

    Zeit Temperatur Niederschläge Wind Luftdruck Luftfeuchtigkeit
    00:00 +20°C° 0,4 mm 2 m/S 744 mmHg 88%
    01:00 +19°C° 0,4 mm 2 m/S 744 mmHg 89%
    02:00 +19°C° 0,5 mm 2 m/S 744 mmHg 90%
    03:00 +18°C° 0,5 mm 2 m/S 744 mmHg 91%
    04:00 +18°C° 0,5 mm 2 m/S 744 mmHg 93%
    05:00 +19°C° 0,7 mm 2 m/S 744 mmHg 89%
    06:00 +20°C° 0,7 mm 2 m/S 744 mmHg 86%
    07:00 +21°C° 0,7 mm 2 m/S 745 mmHg 83%
    08:00 +24°C° 0,5 mm 2 m/S 745 mmHg 78%
    09:00 +25°C° 0,5 mm 2 m/S 745 mmHg 73%
    10:00 +26°C° 0,5 mm 2 m/S 745 mmHg 67%
    11:00 +27°C° 0,4 mm 2 m/S 745 mmHg 65%
    12:00 +27°C° 0,4 mm 3 m/S 745 mmHg 62%
    13:00 +28°C° 0,4 mm 3 m/S 745 mmHg 60%
    14:00 +28°C° 0,8 mm 3 m/S 745 mmHg 62%
    15:00 +28°C° 0,8 mm 2 m/S 745 mmHg 64%
    16:00 +27°C° 0,8 mm 2 m/S 744 mmHg 65%
    17:00 +26°C° 0,7 mm 2 m/S 745 mmHg 70%
    18:00 +24°C° 0,7 mm 1 m/S 745 mmHg 75%
    19:00 +23°C° 0,7 mm 1 m/S 745 mmHg 79%
    20:00 +22°C° 0,1 mm 1 m/S 745 mmHg 81%
    21:00 +21°C° 0,1 mm 1 m/S 746 mmHg 83%
    22:00 +21°C° 0,1 mm 1 m/S 746 mmHg 85%
    23:00 +20°C° 0 mm 1 m/S 746 mmHg 87%
    Mehr zeigen